Waarnemingen

Advertentie
Mijn weer
Freiburg, Duitsland (10803): temperatuur & dauwpunt: 15.01.2017 01:00:00 - 21.01.2017 01:00:00 (CET)Freiburg, Duitsland (10803): temperatuur 5cm & temperatuur -5cm: 15.01.2017 01:00:00 - 21.01.2017 01:00:00 (CET)Freiburg, Duitsland (10803): temperatuur -20cm & temperatuur -100cm: 15.01.2017 01:00:00 - 21.01.2017 01:00:00 (CET)Freiburg, Duitsland (10803): windsnelheid & windstoten: 15.01.2017 01:00:00 - 21.01.2017 01:00:00 (CET)Freiburg, Duitsland (10803): windrichting: 15.01.2017 01:00:00 - 21.01.2017 01:00:00 (CET)Freiburg, Duitsland (10803): luchtdruk: 15.01.2017 01:00:00 - 21.01.2017 01:00:00 (CET)Freiburg, Duitsland (10803): zicht: 15.01.2017 01:00:00 - 21.01.2017 01:00:00 (CET)Freiburg, Duitsland (10803): Zonneschijnduur: 15.01.2017 01:00:00 - 21.01.2017 01:00:00 (CET)Freiburg, Duitsland (10803): neerslag: 15.01.2017 01:00:00 - 21.01.2017 01:00:00 (CET)
Datum & Tijd tt [°C] td [°C] tt 5cm [°C] tt -5cm [°C] tt -20cm [°C] tt -100cm [°C] ff [km/u] ff [kn] fx [km/u] fx [kn] dd ppp [hPa] vv [km] sd [min] rr [mm]
21.01.2017 01:00:00 - - - - - - - - - - - - - - -
21.01.2017 00:00:00 -11,2 -12,2 -15,9 -1,0 0,7 4,9 3 2 4 2 Z 1033,6 1,9 0 0,0
20.01.2017 23:00:00 -11,4 -12,4 -15,7 -1,0 0,7 4,9 3 1 6 3 NW 1033,7 1,7 0 0,0
20.01.2017 22:00:00 -9,8 -10,1 -15,8 -0,9 0,7 4,9 2 1 3 2 NW 1033,4 0,1 0 0,0
20.01.2017 21:00:00 -8,8 -9,4 -15,8 -0,8 0,7 4,9 4 2 5 3 N 1033,3 3,1 0 0,0
20.01.2017 20:00:00 -8,7 -9,1 -15,5 -0,7 0,7 4,9 0 0 3 2 N 1033,2 1,4 0 0,0
20.01.2017 19:00:00 -7,4 -8,3 -14,7 -0,5 0,7 4,9 0 0 4 2 N 1033,1 3,3 0 0,0
20.01.2017 18:00:00 -6,3 -8,6 -14,0 -0,4 0,7 4,9 4 2 4 2 NO 1032,8 5 0 0,0
20.01.2017 17:00:00 -3,9 -8,4 -11,3 -0,3 0,7 4,9 4 2 8 5 ZZW 1032,4 8 15 0,0
20.01.2017 16:00:00 -2,5 -8,1 -4,0 -0,3 0,7 4,9 6 3 9 5 ZW 1032,3 8 60 0,0
20.01.2017 15:00:00 -2,2 -7,8 -1,5 -0,3 0,7 4,9 7 4 13 7 ZW 1032,2 7 60 0,0
20.01.2017 14:00:00 -2,4 -8,0 -0,5 -0,3 0,7 4,9 5 3 10 5 ZW 1032,4 6 60 0,0
20.01.2017 13:00:00 -3,1 -8,4 -0,1 -0,4 0,7 4,9 4 2 8 4 ZZW 1033,2 6 60 0,0
20.01.2017 12:00:00 -4,9 -7,7 -2,1 -0,5 0,7 4,9 4 2 9 5 WZW 1034,1 6 60 0,0
20.01.2017 11:00:00 -5,4 -7,1 -3,3 -0,7 0,8 4,9 3 2 5 3 WNW 1034,3 4,6 60 0,0
20.01.2017 10:00:00 -8,9 -10,3 -8,6 -0,8 0,8 4,9 4 2 5 3 NNO 1034,7 4,2 41 0,0
20.01.2017 09:00:00 -11,1 -11,9 -15,8 -0,9 0,8 4,9 1 0 5 3 Z 1034,7 3,4 0 0,0
20.01.2017 08:00:00 -12,3 -13,4 -16,6 -0,8 0,8 4,9 2 1 3 2 N 1034,8 3,8 0 0,0
20.01.2017 07:00:00 -12,3 -12,8 -17,0 -0,8 0,8 4,9 2 1 4 2 Z 1034,7 3,2 0 0,0
20.01.2017 06:00:00 -12,7 -13,5 -17,5 -0,7 0,8 4,9 3 2 4 2 N 1034,6 3,2 0 0,0
20.01.2017 05:00:00 -12,3 -13,1 -17,1 -0,7 0,9 4,9 2 1 4 2 ZZO 1034,5 3,6 0 0,0
20.01.2017 04:00:00 -11,9 -12,6 -16,7 -0,6 0,9 4,9 0 0 4 2 N 1034,6 4,2 0 0,0
20.01.2017 03:00:00 -11,4 -12,0 -16,6 -0,5 0,9 4,9 0 0 3 2 N 1034,8 0,1 0 0,0
20.01.2017 02:00:00 -10,8 -11,2 -16,0 -0,5 0,9 4,9 0 0 3 2 N 1034,4 0,1 0 0,0
20.01.2017 01:00:00 -10,4 -10,8 -15,1 -0,4 0,9 5,0 0 0 6 3 N 1034,5 0,3 0 0,0
20.01.2017 00:00:00 -10,4 -11,3 -16,0 -0,3 0,9 5,0 2 1 7 4 ZZW 1034,8 2,6 0 0,0
19.01.2017 23:00:00 -10,3 -11,2 -15,5 -0,3 0,9 5,0 3 2 6 3 NO 1035,0 3,6 0 0,0
19.01.2017 22:00:00 -8,0 -8,8 -15,3 -0,2 1,0 5,0 2 1 5 3 ZZW 1035,0 4,2 0 0,0
19.01.2017 21:00:00 -9,0 -9,7 -15,0 -0,2 1,0 5,0 3 1 6 3 ZW 1034,9 3,4 0 0,0
19.01.2017 20:00:00 -6,3 -8,5 -12,6 -0,1 1,0 5,0 5 3 9 5 Z 1034,4 6 0 0,0
19.01.2017 19:00:00 -6,9 -8,9 -13,8 -0,1 1,0 5,0 8 5 10 6 Z 1034,3 6 0 0,0
19.01.2017 18:00:00 -7,0 -9,0 -13,1 0,0 1,0 5,0 4 2 7 4 WZW 1034,1 6 0 0,0
19.01.2017 17:00:00 -4,0 -7,5 -11,8 0,0 1,0 5,0 6 3 9 5 WNW 1033,9 9 12 0,0
19.01.2017 16:00:00 -2,8 -7,6 -2,5 -0,1 1,0 5,0 7 4 10 6 NW 1033,5 9 60 0,0
19.01.2017 15:00:00 -2,8 -7,9 0,2 -0,1 1,0 5,0 7 4 10 6 WNW 1033,6 8 60 0,0
19.01.2017 14:00:00 -3,2 -9,1 2,8 -0,1 1,0 5,0 5 3 9 5 NW 1034,0 8 60 0,0
19.01.2017 13:00:00 -4,2 -9,3 2,1 -0,1 1,0 5,0 5 3 10 5 NNW 1034,5 8 60 0,0
19.01.2017 12:00:00 -3,3 -8,9 -2,1 -0,1 1,0 5,0 0 0 3 1 N 1034,7 6 59 0,0
19.01.2017 11:00:00 -6,1 -7,0 -6,5 -0,1 1,0 5,0 0 0 5 3 N 1035,6 6 17 0,0
19.01.2017 10:00:00 -8,9 -10,1 -12,0 -0,1 1,1 5,0 3 2 6 4 ZW 1035,8 4,8 0 0,0
19.01.2017 09:00:00 -11,1 -12,1 -15,3 -0,1 1,1 5,0 5 3 7 4 WZW 1035,6 4,7 0 0,0
19.01.2017 08:00:00 -12,4 -13,2 -16,8 0,0 1,1 5,0 5 3 8 4 WZW 1035,0 5 0 0,0
19.01.2017 07:00:00 -10,9 -11,4 -16,6 0,0 1,1 5,0 2 1 3 2 ZW 1034,8 0,2 0 0,0
19.01.2017 06:00:00 -10,3 -10,8 -17,0 0,0 1,1 5,0 1 1 6 3 N 1034,5 3,2 0 0,0
19.01.2017 05:00:00 -10,2 -11,1 -15,8 0,0 1,1 5,0 0 0 4 2 N 1034,6 5 0 0,0
19.01.2017 04:00:00 -9,4 -10,4 -15,1 0,1 1,1 5,0 4 2 7 4 Z 1034,4 8 0 0,0
19.01.2017 03:00:00 -10,1 -11,5 -14,3 0,1 1,1 5,0 5 3 8 5 WZW 1034,1 7 0 0,0
19.01.2017 02:00:00 -7,8 -9,9 -13,1 0,1 1,1 5,0 4 2 13 7 NW 1033,5 10 0 0,0
19.01.2017 01:00:00 -9,4 -11,2 -13,8 0,1 1,1 5,0 5 3 13 7 NNO 1033,6 9 0 0,0
19.01.2017 00:00:00 -5,9 -9,8 -8,0 0,1 1,1 5,0 7 4 20 11 N 1033,3 14 0 0,0
18.01.2017 23:00:00 -7,0 -9,1 -11,0 0,1 1,1 5,0 8 4 10 6 N 1033,6 12 0 0,0
18.01.2017 22:00:00 -7,6 -9,9 -13,0 0,1 1,1 5,0 6 3 10 5 N 1033,8 7 0 0,0
18.01.2017 21:00:00 -6,9 -9,3 -14,0 0,1 1,2 5,0 4 2 9 5 NO 1033,9 8 0 0,0
18.01.2017 20:00:00 -6,5 -9,6 -14,0 0,2 1,2 5,0 0 0 6 4 N 1034,0 17 0 0,0
18.01.2017 19:00:00 -6,5 -10,2 -13,1 0,2 1,2 5,0 3 2 13 7 WZW 1034,0 18 0 0,0
18.01.2017 18:00:00 -2,5 -8,2 -8,2 0,2 1,2 5,0 6 3 14 8 NNO 1033,2 21 0 0,0
18.01.2017 17:00:00 -1,5 -8,0 -5,1 0,2 1,2 5,0 6 3 23 12 NO 1032,9 18 16 0,0
18.01.2017 16:00:00 -0,7 -8,2 -1,2 0,2 1,2 5,0 11 6 23 12 NNO 1032,5 20 59 0,0
18.01.2017 15:00:00 -0,4 -8,8 1,9 0,2 1,2 5,0 12 7 23 12 N 1032,5 9 60 0,0
18.01.2017 14:00:00 -0,8 -9,2 2,5 0,2 1,2 5,1 13 7 21 12 N 1032,5 10 60 0,0
18.01.2017 13:00:00 -1,1 -9,1 0,1 0,2 1,2 5,1 13 7 24 13 O 1033,0 17 60 0,0
18.01.2017 12:00:00 -1,5 -9,8 2,2 0,2 1,2 5,1 6 3 14 8 NNO 1033,2 16 60 0,0
18.01.2017 11:00:00 -1,9 -9,6 0,0 0,2 1,2 5,1 4 2 9 5 N 1033,5 20 60 0,0
18.01.2017 10:00:00 -5,1 -9,7 -7,3 0,2 1,2 5,1 4 2 7 4 NNW 1033,7 21 44 0,0
18.01.2017 09:00:00 -7,9 -10,3 -13,1 0,2 1,2 5,1 3 1 9 5 WNW 1033,8 20 0 0,0
18.01.2017 08:00:00 -6,3 -9,5 -13,4 0,2 1,2 5,1 6 4 13 7 N 1033,1 21 0 0,0
18.01.2017 07:00:00 -6,2 -9,5 -14,6 0,2 1,2 5,1 6 4 10 5 N 1032,8 25 0 0,0
18.01.2017 06:00:00 -7,2 -10,1 -13,5 0,2 1,2 5,1 6 4 13 7 N 1032,6 26 0 0,0
18.01.2017 05:00:00 -6,2 -9,7 -12,6 0,2 1,2 5,1 6 3 13 7 N 1032,6 27 0 0,0
18.01.2017 04:00:00 -5,9 -9,5 -12,3 0,2 1,2 5,1 5 3 14 7 N 1032,7 27 0 0,0
18.01.2017 03:00:00 -5,1 -9,3 -11,9 0,2 1,2 5,1 2 1 26 14 ZZO 1032,7 32 0 0,0
18.01.2017 02:00:00 -3,5 -9,0 -5,5 0,2 1,2 5,1 16 8 27 14 NNO 1032,5 33 0 0,0
18.01.2017 01:00:00 -3,5 -8,8 -6,0 0,2 1,2 5,1 8 5 19 10 NNO 1032,7 33 0 0,0
18.01.2017 00:00:00 -3,2 -9,0 -5,8 0,2 1,2 5,1 10 5 22 12 NNO 1032,6 39 0 0,0
17.01.2017 23:00:00 -2,7 -9,0 -5,1 0,2 1,2 5,1 11 6 23 13 NNO 1032,5 41 0 0,0
17.01.2017 22:00:00 -3,1 -8,4 -6,1 0,2 1,3 5,1 7 4 24 13 NO 1032,6 13 0 0,0
17.01.2017 21:00:00 -2,5 -8,3 -4,9 0,3 1,3 5,1 11 6 34 19 NO 1032,4 29 0 0,0
17.01.2017 20:00:00 -2,6 -8,2 -4,5 0,3 1,3 5,1 16 9 28 15 NNO 1032,4 36 0 0,0
17.01.2017 19:00:00 -2,5 -8,0 -4,5 0,3 1,3 5,1 12 7 24 13 NNO 1032,2 33 0 0,0
17.01.2017 18:00:00 -2,4 -7,5 -4,0 0,3 1,3 5,1 13 7 24 13 NNO 1031,9 40 0 0,0
17.01.2017 17:00:00 -2,3 -7,2 -2,8 0,3 1,3 5,1 14 8 27 15 N 1031,6 40 0 0,0
17.01.2017 16:00:00 -2,2 -7,7 -2,4 0,4 1,3 5,1 14 8 33 18 NNO 1031,4 42 1 0,0
17.01.2017 15:00:00 -2,3 -7,8 -1,5 0,4 1,3 5,1 13 7 32 18 N 1031,3 32 5 0,0
17.01.2017 14:00:00 -2,3 -8,7 -2,8 0,4 1,3 5,1 12 6 25 14 NO 1031,5 43 45 0,0
17.01.2017 13:00:00 -2,0 -8,3 1,9 0,3 1,3 5,1 10 5 24 13 NNO 1031,8 41 46 0,0
17.01.2017 12:00:00 -2,8 -8,5 -2,2 0,3 1,3 5,1 13 7 23 12 NNO 1032,3 33 53 0,0
17.01.2017 11:00:00 -3,0 -8,8 0,8 0,3 1,3 5,1 11 6 18 10 N 1032,6 33 56 0,0
17.01.2017 10:00:00 -3,8 -8,5 -5,3 0,3 1,3 5,1 7 4 12 7 ZZO 1032,3 25 20 0,0
17.01.2017 09:00:00 -7,2 -8,7 -11,1 0,2 1,3 5,1 4 2 11 6 NW 1032,3 12 0 0,0
17.01.2017 08:00:00 -5,6 -7,4 -8,8 0,3 1,3 5,1 4 2 12 7 Z 1031,5 15 0 0,0
17.01.2017 07:00:00 -5,4 -6,8 -5,9 0,3 1,3 5,1 4 2 9 5 N 1031,0 16 0 0,0
17.01.2017 06:00:00 -7,2 -8,2 -12,3 0,3 1,3 5,1 3 1 7 4 WZW 1030,7 22 0 0,0
17.01.2017 05:00:00 -8,2 -9,2 -15,3 0,3 1,3 5,1 3 2 6 3 WNW 1030,7 15 0 0,0
17.01.2017 04:00:00 -5,6 -7,2 -12,5 0,3 1,3 5,1 3 2 16 9 NO 1030,1 27 0 0,0
17.01.2017 03:00:00 -4,6 -6,9 -4,9 0,3 1,3 5,2 10 5 13 7 NNW 1029,8 32 0 0,0
17.01.2017 02:00:00 -3,8 -6,8 -7,1 0,3 1,3 5,2 4 2 10 5 NO 1029,5 20 0 0,0
17.01.2017 01:00:00 -3,4 -7,0 -3,3 0,4 1,3 5,2 5 3 16 8 N 1029,6 42 0 0,0
17.01.2017 00:00:00 -3,2 -7,0 -3,6 0,4 1,3 5,2 9 5 18 10 N 1028,9 44 0 0,0
16.01.2017 23:00:00 -3,2 -7,1 -5,0 0,4 1,4 5,2 10 6 16 9 N 1028,7 50 0 0,0
16.01.2017 22:00:00 -2,6 -6,5 -3,2 0,4 1,4 5,2 6 4 18 10 N 1028,4 46 0 0,0
16.01.2017 21:00:00 -2,5 -6,5 -2,9 0,4 1,4 5,2 13 7 19 11 N 1027,8 48 0 0,0
16.01.2017 20:00:00 -2,0 -5,6 -2,8 0,4 1,4 5,2 6 3 22 12 NNO 1027,6 25 0 0,0
16.01.2017 19:00:00 -2,0 -4,5 -2,9 0,4 1,4 5,2 7 4 13 7 NO 1026,8 13 0 0,0
16.01.2017 18:00:00 -1,6 -3,9 -3,4 0,4 1,4 5,2 4 2 13 7 N 1026,3 20 0 0,0
16.01.2017 17:00:00 -1,0 -4,0 -1,5 0,4 1,4 5,2 8 5 25 14 N 1025,8 14 0 0,0
16.01.2017 16:00:00 -0,6 -4,1 -0,6 0,4 1,4 5,2 13 7 23 13 N 1025,4 19 28 0,0
16.01.2017 15:00:00 -0,4 -4,2 -1,1 0,4 1,4 5,2 10 5 22 12 N 1025,1 38 37 0,0
16.01.2017 14:00:00 0,0 -5,2 3,2 0,5 1,4 5,2 11 6 24 13 NNO 1024,9 23 48 0,0
16.01.2017 13:00:00 -1,5 -4,0 -0,4 0,5 1,4 5,2 4 2 11 6 N 1025,1 18 39 0,0
16.01.2017 12:00:00 -2,3 -3,7 1,0 0,4 1,4 5,2 5 3 9 5 N 1025,4 19 32 0,0
16.01.2017 11:00:00 -3,1 -3,7 0,0 0,4 1,4 5,2 4 2 7 4 N 1025,5 5 13 0,0
16.01.2017 10:00:00 -3,9 -4,5 -2,5 0,4 1,4 5,2 2 1 9 5 N 1025,5 1,4 0 0,0
16.01.2017 09:00:00 -4,3 -4,9 -4,1 0,4 1,4 5,2 2 1 6 4 NNW 1025,1 4,9 0 0,0
16.01.2017 08:00:00 -2,9 -3,3 -1,8 0,4 1,4 5,2 2 1 5 3 N 1024,6 9 0 0,0
16.01.2017 07:00:00 -2,9 -3,2 -1,4 0,4 1,4 5,2 3 2 5 3 NO 1024,2 9 0 0,0
16.01.2017 06:00:00 -3,9 -4,3 -3,0 0,4 1,4 5,2 3 1 5 3 WZW 1024,0 5 0 0,2
16.01.2017 05:00:00 -3,6 -3,9 -3,2 0,4 1,4 5,2 0 0 5 3 N 1023,8 5 0 0,1
16.01.2017 04:00:00 -5,2 -5,6 -5,6 0,4 1,4 5,2 1 1 4 2 Z 1023,9 2,5 0 0,1
16.01.2017 03:00:00 -4,3 -4,8 -3,3 0,3 1,4 5,2 2 1 7 4 NNO 1023,9 3,0 0 0,0
16.01.2017 02:00:00 -5,7 -6,2 -6,0 0,3 1,4 5,2 4 2 5 3 NNO 1024,1 6 0 0,0
16.01.2017 01:00:00 -5,8 -5,8 -9,4 0,3 1,4 5,2 4 2 5 3 Z 1024,3 0,4 0 0,0
16.01.2017 00:00:00 -5,8 -5,9 -9,6 0,4 1,5 5,2 4 2 6 3 NO 1024,6 0,6 0 0,0
15.01.2017 23:00:00 -5,0 -5,1 -9,4 0,4 1,5 5,2 3 2 5 3 O 1024,6 0,2 0 0,0
15.01.2017 22:00:00 -4,5 -4,5 -7,7 0,4 1,5 5,2 2 1 5 3 ZO 1024,8 0,1 0 0,0
15.01.2017 21:00:00 -3,3 -3,6 -5,6 0,4 1,5 5,2 4 2 6 3 NNW 1024,3 0,2 0 0,0
15.01.2017 20:00:00 -1,5 -1,5 -2,9 0,4 1,5 5,2 3 2 5 3 NNW 1024,2 1,3 0 0,0
15.01.2017 19:00:00 -1,6 -1,7 -2,6 0,4 1,5 5,2 2 1 5 3 NO 1024,2 0,7 0 0,0
15.01.2017 18:00:00 -0,9 -0,9 -1,4 0,4 1,5 5,2 4 2 5 3 NW 1024,0 4,1 0 0,0
15.01.2017 17:00:00 -0,9 -1,9 -1,5 0,4 1,5 5,2 2 1 6 4 WZW 1023,9 10 0 0,0
15.01.2017 16:00:00 0,6 -0,7 -0,1 0,4 1,5 5,2 3 1 9 5 W 1023,6 13 1 0,0
15.01.2017 15:00:00 0,6 -0,7 0,2 0,4 1,6 5,2 4 2 17 9 ZZW 1023,5 3,8 1 0,9
15.01.2017 14:00:00 0,7 -0,7 0,4 0,4 1,6 5,2 4 2 15 8 ZW 1023,6 6 0 0,6
15.01.2017 13:00:00 0,2 -1,1 0,1 0,5 1,6 5,2 12 6 18 10 ZZW 1023,8 5 0 0,4
15.01.2017 12:00:00 0,0 -1,2 0,0 0,5 1,6 5,2 10 6 18 10 ZZW 1023,9 5 0 0,1
15.01.2017 11:00:00 -0,3 -1,4 0,0 0,4 1,6 5,2 11 6 18 10 ZW 1024,1 3,8 0 0,2
15.01.2017 10:00:00 -0,6 -2,0 -0,7 0,5 1,6 5,2 3 2 4 2 N 1023,6 17 0 0,0
15.01.2017 09:00:00 -1,1 -1,8 -1,7 0,5 1,6 5,2 0 0 6 3 N 1023,0 20 0 0,0
15.01.2017 08:00:00 -1,0 -2,3 -1,9 0,5 1,7 5,2 5 3 10 5 Z 1022,3 41 0 0,0
15.01.2017 07:00:00 -1,5 -2,3 -1,8 0,5 1,7 5,2 3 2 9 5 ZW 1021,9 20 0 0,0
15.01.2017 06:00:00 -1,9 -2,2 -3,0 0,5 1,7 5,2 3 1 6 3 W 1021,5 13 0 0,0
15.01.2017 05:00:00 -1,1 -1,8 -2,0 0,5 1,7 5,2 6 3 7 4 ZZW 1021,3 14 0 0,0
15.01.2017 04:00:00 -1,6 -2,0 -2,5 0,5 1,8 5,2 4 2 6 3 ZW 1021,3 24 0 0,0
15.01.2017 03:00:00 -1,4 -2,1 -2,7 0,5 1,8 5,2 5 3 14 8 ZW 1021,1 30 0 0,0
15.01.2017 02:00:00 -1,0 -2,1 -2,1 0,5 1,8 5,2 9 5 23 12 ZZW 1020,6 40 0 0,0
15.01.2017 01:00:00 -0,7 -1,4 -0,9 0,5 1,9 5,2 15 8 27 15 ZW 1020,4 31 0 0,1

tt = temperatuur
td = dauwpunt
tt 5cm = temperatuur 5cm
tt -5cm = temperatuur -5cm
tt -20cm = temperatuur -20cm
tt -100cm = temperatuur -100cm
ff = windsnelheid
fx = windstoten
dd = windrichting
ppp = luchtdruk
vv = zicht
sd = Zonneschijnduur
rr = neerslag

Weerstations in de omgeving